Keene, NH

7:56 PM EDT on October 14, 2019 (GMT -0400)
Dillant-Hopkins

Weather History for KEEN - August, 2019

Change the Weather History Date:

Tuesday, August 20, 2019

  Actual Average Record
Temperature  
Mean Temperature 70 °F -  
Max Temperature 84 °F 79 °F 94 °F (1955)
Min Temperature 57 °F 54 °F 37 °F (1964)
Cooling Degree Days 6    
Growing Degree Days 20 (Base 50)    
Moisture  
Dew Point 59 °F    
Average Humidity 82    
Maximum Humidity 100    
Minimum Humidity 35    
Precipitation  
Precipitation 0.00 in - - ()
Sea Level Pressure  
Sea Level Pressure 30.07 in    
Wind  
Wind Speed 1 mph (South)    
Max Wind Speed 7 mph    
Max Gust Speed -    
Visibility 7 miles    
Events      
Averages and records for this station are not official NWS values.
T = Trace of Precipitation, MM = Missing Value Source: NWS Daily Summary

Daily Weather History Graph

Daily Weather History Graph

Search for Another Location

Airport or City:

Astronomy

Aug. 20, 2019 Rise Set
Actual Time 6:00 AM EDT 7:43 PM EDT
Civil Twilight 5:30 AM EDT 8:13 PM EDT
Nautical Twilight 4:53 AM EDT 8:50 PM EDT
Astronomical Twilight 4:14 AM EDT 9:29 PM EDT
Moon 10:24 PM EDT (8/20) 10:41 AM EDT (8/20)
Length of Visible Light 14h 43m
Length of Day
13h 43m
Waning Gibbous, 78% of the Moon is Illuminated
Aug 20
Waning Gibbous
Aug 23
Last Quarter
Aug 30
New
Sep 5
First Quarter
Sep 14
Full

Hourly Weather History & Observations

Time (EDT) Temp. Heat Index Dew Point Humidity Pressure Visibility Wind Dir Wind Speed Gust Speed Precip Events Conditions
12:56 AM 64.9 °F - 64.9 °F 100% 30.03 in 8.0 mi Calm Calm - N/A   Clear
1:17 AM 64.4 °F - 64.4 °F 100% 30.02 in 9.0 mi Calm Calm - N/A   Partly Cloudy
1:56 AM 63.0 °F - 63.0 °F 100% 30.03 in 5.0 mi Calm Calm - N/A   Clear
2:10 AM 62.6 °F - 62.6 °F 100% 30.02 in 2.5 mi Calm Calm - N/A   Clear
2:18 AM 62.6 °F - 62.6 °F 100% 30.03 in 10.0 mi Calm Calm - N/A   Clear
2:56 AM 63.0 °F - 62.1 °F 97% 30.03 in 10.0 mi North 3.5 mph - N/A   Clear
3:56 AM 61.0 °F - 60.1 °F 97% 30.04 in 7.0 mi Calm Calm - N/A   Clear
4:09 AM 60.8 °F - 60.8 °F 100% 30.04 in 1.8 mi SSW 3.5 mph - N/A   Clear
4:12 AM 60.8 °F - 59.0 °F 94% 30.04 in 0.8 mi SSE 3.5 mph - N/A   Mist
4:22 AM 60.8 °F - 60.8 °F 100% 30.04 in 1.5 mi SSW 3.5 mph - N/A   Partly Cloudy
4:29 AM 59.0 °F - 59.0 °F 100% 30.04 in 4.0 mi South 3.5 mph - N/A   Clear
4:56 AM 59.0 °F - 57.9 °F 96% 30.06 in 9.0 mi Calm Calm - N/A   Clear
5:56 AM 57.9 °F - 57.9 °F 100% 30.08 in 5.0 mi Calm Calm - N/A   Clear
6:10 AM 57.2 °F - 55.4 °F 94% 30.09 in 1.8 mi Calm Calm - N/A   Clear
6:21 AM 57.2 °F - 57.2 °F 100% 30.09 in 3.0 mi Calm Calm - N/A   Clear
6:33 AM 57.2 °F - 55.4 °F 94% 30.10 in 1.8 mi Calm Calm - N/A   Clear
6:42 AM 57.2 °F - 57.2 °F 100% 30.10 in 4.0 mi Calm Calm - N/A   Clear
6:56 AM 57.0 °F - 57.0 °F 100% 30.11 in 5.0 mi Calm Calm - N/A   Clear
7:56 AM 62.1 °F - 59.0 °F 90% 30.12 in 10.0 mi Calm Calm - N/A   Clear
8:56 AM 66.9 °F - 60.1 °F 79% 30.13 in 9.0 mi Calm Calm - N/A   Clear
9:56 AM 72.0 °F - 60.1 °F 66% 30.13 in 10.0 mi Calm Calm - N/A   Clear
10:56 AM 75.9 °F - 59.0 °F 56% 30.12 in 10.0 mi Calm Calm - N/A   Clear
11:56 AM 79.0 °F - 57.0 °F 47% 30.11 in 10.0 mi Calm Calm - N/A   Clear
12:56 PM 80.1 °F 80.4 °F 57.0 °F 45% 30.09 in 9.0 mi Variable 3.5 mph - N/A   Clear
1:56 PM 82.0 °F 81.7 °F 57.0 °F 42% 30.08 in 7.0 mi SSW 6.9 mph - N/A   Clear
2:56 PM 82.9 °F 82.0 °F 55.0 °F 38% 30.08 in 10.0 mi Variable 4.6 mph - N/A   Clear
3:56 PM 82.9 °F 82.0 °F 55.0 °F 38% 30.07 in 10.0 mi Variable 5.8 mph - N/A   Clear
4:56 PM 84.0 °F 82.6 °F 54.0 °F 35% 30.07 in 8.0 mi South 5.8 mph - N/A   Clear
5:56 PM 82.9 °F 82.1 °F 55.9 °F 39% 30.05 in 10.0 mi South 4.6 mph - N/A   Clear
6:56 PM 78.1 °F - 63.0 °F 60% 30.05 in 8.0 mi Calm Calm - N/A   Clear
7:56 PM 70.0 °F - 64.0 °F 81% 30.05 in 10.0 mi Calm Calm - N/A   Clear
8:56 PM 64.9 °F - 63.0 °F 93% 30.06 in 10.0 mi Calm Calm - N/A   Clear
9:56 PM 63.0 °F - 62.1 °F 97% 30.07 in 10.0 mi Calm Calm - N/A   Clear
10:56 PM 62.1 °F - 61.0 °F 96% 30.07 in 10.0 mi Calm Calm - N/A   Clear
11:56 PM 61.0 °F - 60.1 °F 97% 30.07 in 10.0 mi Calm Calm - N/A   Clear